TimeCDT,TemperatureF,Dew PointF,Humidity,Sea Level PressureIn,VisibilityMPH,Wind Direction,Wind SpeedMPH,Gust SpeedMPH,PrecipitationIn,Events,Conditions,WindDirDegrees,DateUTC
12:58 AM,77.2,74.7,92,30.00,10.0,WSW,4.6,-,N/A,,Clear,240,2013-06-13 05:58:00
1:58 AM,76.8,74.3,92,30.00,10.0,WSW,5.8,-,N/A,,Clear,240,2013-06-13 06:58:00
2:58 AM,75.6,74.1,95,29.99,10.0,West,4.6,-,N/A,,Clear,270,2013-06-13 07:58:00
3:58 AM,75.7,73.8,94,29.99,10.0,WNW,5.8,-,N/A,,Clear,290,2013-06-13 08:58:00
4:58 AM,75.4,73.0,92,29.99,10.0,WNW,3.5,-,N/A,,Clear,290,2013-06-13 09:58:00
5:58 AM,75.0,72.9,93,30.01,10.0,WNW,4.6,-,N/A,,Clear,290,2013-06-13 10:58:00
6:58 AM,77.0,73.2,88,30.01,10.0,West,3.5,-,N/A,,Clear,260,2013-06-13 11:58:00
7:58 AM,81.0,73.8,79,30.02,10.0,WNW,5.8,-,N/A,,Clear,290,2013-06-13 12:58:00
8:58 AM,85.1,73.9,69,30.02,10.0,WNW,4.6,-,N/A,,Clear,290,2013-06-13 13:58:00
9:58 AM,88.9,72.7,59,30.02,10.0,WNW,6.9,-,N/A,,Clear,300,2013-06-13 14:58:00
10:58 AM,91.0,72.1,54,30.01,10.0,WNW,10.4,-,N/A,,Partly Cloudy,290,2013-06-13 15:58:00
11:58 AM,93.2,69.8,46,29.98,10.0,West,12.7,-,N/A,,Partly Cloudy,270,2013-06-13 16:58:00
12:58 PM,95.0,69.8,44,29.96,10.0,WSW,9.2,-,N/A,,Scattered Clouds,250,2013-06-13 17:58:00
1:58 PM,93.9,72.5,50,29.94,10.0,West,10.4,-,N/A,,Mostly Cloudy,280,2013-06-13 18:58:00
2:58 PM,94.3,71.6,48,29.92,10.0,WNW,9.2,-,N/A,,Partly Cloudy,290,2013-06-13 19:58:00
3:58 PM,94.3,72.1,48,29.89,10.0,West,9.2,-,N/A,,Clear,260,2013-06-13 20:58:00
4:58 PM,93.4,71.6,49,29.88,10.0,West,9.2,-,N/A,,Partly Cloudy,260,2013-06-13 21:58:00
5:58 PM,92.8,71.4,50,29.85,10.0,West,8.1,-,N/A,,Clear,260,2013-06-13 22:58:00
6:58 PM,90.7,71.6,53,29.86,10.0,West,5.8,-,N/A,,Clear,260,2013-06-13 23:58:00
7:58 PM,85.1,72.7,66,29.86,10.0,SSW,5.8,-,N/A,,Clear,210,2013-06-14 00:58:00
8:58 PM,83.1,75.7,78,29.88,10.0,South,4.6,-,N/A,,Clear,190,2013-06-14 01:58:00
9:58 PM,81.7,75.2,81,29.89,10.0,SSW,5.8,-,N/A,,Clear,210,2013-06-14 02:58:00
10:58 PM,80.6,74.7,82,29.90,10.0,SSW,5.8,-,N/A,,Mostly Cloudy,210,2013-06-14 03:58:00
11:58 PM,79.3,74.3,84,29.89,10.0,SSW,4.6,-,N/A,,Partly Cloudy,210,2013-06-14 04:58:00